Hurghada, Egypt

5:46 PM EET on February 22, 2018 (GMT +0200)
Hurghada

Weather History for HEGN - December, 2012

Change the Weather History Date:

Wednesday, December 19, 2012

  Actual Average Record
Temperature  
Mean Temperature 67 °F -  
Max Temperature 84 °F 69 °F 84 °F (2012)
Min Temperature 50 °F 53 °F 50 °F (2006)
Cooling Degree Days 2    
Growing Degree Days 17 (Base 50)    
Moisture  
Dew Point 40 °F    
Average Humidity 42    
Maximum Humidity 63    
Minimum Humidity 16    
Precipitation  
Precipitation 0.00 in - - ()
Sea Level Pressure  
Sea Level Pressure 30.00 in    
Wind  
Wind Speed 3 mph ()    
Max Wind Speed 9 mph    
Max Gust Speed -    
Visibility 6.0 miles    
Events      
Averages and records for this station are not official NWS values.
T = Trace of Precipitation, MM = Missing Value Source: Averaged Metar Reports

Daily Weather History Graph

Daily Weather History Graph

Search for Another Location

Airport or City:

Trip Planner

Search our weather history database for the weather conditions in past years. The results will help you decide how hot, cold, wet, or windy it might be!

Date:

Astronomy

Dec. 19, 2012 Rise Set
Actual Time 6:29 AM EET 4:55 PM EET
Civil Twilight 6:03 AM EET 5:20 PM EET
Nautical Twilight 5:34 AM EET 5:49 PM EET
Astronomical Twilight 5:06 AM EET 6:18 PM EET
Moon 11:01 AM EET (12/19) 11:26 PM EET (12/19)
Length of Visible Light 11h 17m
Length of Day
10h 25m
Waxing Crescent, 42% of the Moon is Illuminated
Dec 19
Waxing Crescent
Dec 20
First Quarter
Dec 28
Full
Jan 5
Last Quarter
Jan 11
New

Hourly Weather History & Observations

Time (EET) Temp. Dew Point Humidity Pressure Visibility Wind Dir Wind Speed Gust Speed Precip Events Conditions
12:00 AM 55.4 °F 42.8 °F 63% 30.04 in - West 3.5 mph - N/A   Clear
1:00 AM 53.6 °F 41.0 °F 62% 30.04 in - Calm Calm - N/A   Clear
2:00 AM 56 °F 41 °F 45% 30.04 in 6 mi NW 6.9 mph - -  
3:00 AM 53.6 °F 39.2 °F 58% 30.01 in - Calm Calm - N/A   Clear
5:00 AM 51.8 °F 37.4 °F 58% 30.01 in - WNW 2.3 mph - N/A   Clear
6:00 AM 51.8 °F 37.4 °F 58% 30.01 in - West 3.5 mph - N/A   Clear
7:00 AM 51.8 °F 33.8 °F 50% 30.01 in - West 3.5 mph - N/A   Clear
8:00 AM 55 °F 34 °F 33% 30.04 in 6 mi WNW 3.5 mph - -  
8:00 AM 55.4 °F 33.8 °F 44% 30.04 in - WNW 3.5 mph - N/A   Clear
9:00 AM 66.2 °F 39.2 °F 37% 30.04 in - NW 3.5 mph - N/A   Clear
11:00 AM 80.6 °F 42.8 °F 26% 30.04 in - North 4.6 mph - N/A   Clear
12:00 PM 80.6 °F 42.8 °F 26% 30.01 in - North 6.9 mph - N/A   Clear
1:00 PM 82.4 °F 44.6 °F 26% 29.98 in - ENE 6.9 mph - N/A   Clear
2:00 PM 83 °F 45 °F 16% 29.98 in 6 mi Calm Calm - -  
3:00 PM 82.4 °F 44.6 °F 26% 29.95 in - East 5.8 mph - N/A   Clear
4:00 PM 80.6 °F 42.8 °F 26% 29.95 in - East 9.2 mph - N/A   Clear
5:00 PM 71.6 °F 42.8 °F 35% 29.95 in - ESE 8.1 mph - N/A   Clear
6:00 PM 68.0 °F 41.0 °F 37% 29.95 in - ESE 5.8 mph - N/A   Clear
7:00 PM 66.2 °F 41.0 °F 40% 29.98 in - SSE 3.5 mph - N/A   Clear
8:00 PM 63 °F 41 °F 33% 29.98 in 6 mi Calm Calm - -  
8:00 PM 62.6 °F 41.0 °F 45% 29.98 in - Calm Calm - N/A   Clear
9:00 PM 60.8 °F 41.0 °F 48% 29.95 in - Calm Calm - N/A   Clear
10:00 PM 57.2 °F 41.0 °F 55% 29.95 in - Calm Calm - N/A   Clear
11:00 PM 57.2 °F 39.2 °F 51% 29.95 in - WNW 3.5 mph - N/A   Clear